Weather History for Keene, NH

Change the Weather History Date:

Friday, February 14, 2014

  Actual Average Record
Temperature  
Mean Temperature 28 °F -  
Max Temperature 32 °F 34 °F 58 °F (1984)
Min Temperature 21 °F 9 °F -16 °F (2003)
Degree Days  
Heating Degree Days 37    
Moisture  
Dew Point 17 °F    
Average Humidity 65    
Maximum Humidity 80    
Minimum Humidity 55    
Precipitation  
Precipitation 0.51 in - - ()
Sea Level Pressure  
Sea Level Pressure 29.23 in    
Wind  
Wind Speed 9 mph (WNW)    
Max Wind Speed 17 mph    
Max Gust Speed 23 mph    
Visibility 7 miles    
Events      
Averages and records for this station are not official NWS values.
T = Trace of Precipitation, MM = Missing Value Source: NWS Daily Summary

Daily Weather History Graph

Daily Weather History Graph

Search for Another Location

Airport:

Trip Planner

Search our weather history database for the weather conditions in past years. The results will help you decide how hot, cold, wet, or windy it might be!

Date:

Astronomy

Feb. 14, 2014 Rise Set
Actual Time 6:47 AM EST 5:19 PM EST
Civil Twilight 6:18 AM EST 5:48 PM EST
Nautical Twilight 5:45 AM EST 6:21 PM EST
Astronomical Twilight 5:12 AM EST 6:54 PM EST
Moon 5:21 PM EST (2/14) 6:12 AM EST (2/14)
Length of Visible Light 11h 29m
Length of Day
10h 31m
Full, 100% of the Moon is Illuminated
Feb 14
Full
Feb 14
Full
Feb 22
Last Quarter
Mar 1
New
Mar 8
First Quarter

Hourly Weather History & Observations

Time (EST) Temp. Windchill Dew Point Humidity Pressure Visibility Wind Dir Wind Speed Gust Speed Precip Events Conditions
12:15 AM - - - N/A% 29.05 in 2.5 mi North 15.0 mph - 0.02 in   Overcast
12:35 AM - - - N/A% 29.00 in 3.0 mi North 16.1 mph 23.0 mph 0.07 in   Overcast
12:55 AM - - - N/A% 28.99 in 5.0 mi North 17.3 mph - 0.11 in   Overcast
1:15 AM - - - N/A% 29.02 in 5.0 mi NW 5.8 mph - 0.04 in   Overcast
1:35 AM - - - N/A% 29.01 in 3.0 mi West 5.8 mph - 0.06 in   Overcast
1:55 AM - - - N/A% 29.01 in 1.0 mi Calm Calm - 0.07 in   Overcast
2:15 AM - - - N/A% 28.98 in 0.2 mi North 8.1 mph - N/A   Overcast
2:35 AM - - - N/A% 28.94 in 1.0 mi North 10.4 mph - 0.02 in   Overcast
2:55 AM - - - N/A% 28.92 in 1.0 mi Calm Calm - 0.05 in   Overcast
3:15 AM - - - N/A% 28.91 in 0.8 mi North 4.6 mph - 0.03 in   Overcast
3:35 AM - - - N/A% 28.91 in 2.5 mi North 8.1 mph - 0.04 in   Overcast
3:55 AM - - - N/A% 28.91 in 2.0 mi North 9.2 mph - 0.06 in   Overcast
4:15 AM - - - N/A% 28.91 in 2.5 mi North 8.1 mph - 0.01 in   Overcast
4:35 AM - - - N/A% 28.91 in 1.8 mi North 8.1 mph - 0.02 in   Overcast
4:55 AM - - - N/A% 28.92 in 1.5 mi North 6.9 mph - 0.03 in   Overcast
5:15 AM - - - N/A% 28.93 in 1.5 mi NNW 9.2 mph - 0.01 in   Overcast
5:35 AM - - - N/A% 28.93 in 1.8 mi NNW 13.8 mph 18.4 mph 0.02 in   Overcast
5:55 AM - - - N/A% 28.94 in 1.5 mi North 13.8 mph - 0.02 in   Overcast
6:15 AM 26.6 °F 18.2 °F 19.4 °F 74% 28.95 in 0.5 mi North 8.1 mph - 0.01 in   Overcast
6:35 AM 26.6 °F 20.0 °F 21.2 °F 80% 28.95 in 1.5 mi North 5.8 mph - 0.02 in   Overcast
6:55 AM 26.6 °F 21.2 °F 19.4 °F 74% 28.95 in 1.0 mi North 4.6 mph - 0.02 in   Overcast
7:15 AM 26.6 °F 18.2 °F 19.4 °F 74% 28.96 in 1.8 mi NNW 8.1 mph - 0.01 in   Overcast
7:35 AM 26.6 °F 17.5 °F 19.4 °F 74% 28.98 in 3.0 mi NNW 9.2 mph - 0.01 in   Overcast
7:55 AM 24.8 °F 16.9 °F 17.6 °F 74% 28.99 in 6.0 mi NW 6.9 mph - 0.01 in   Overcast
8:15 AM 24.8 °F 17.9 °F 15.8 °F 69% 29.01 in 1.8 mi West 5.8 mph 21.9 mph 0.01 in   Overcast
8:35 AM 24.8 °F 19.1 °F 15.8 °F 69% 29.02 in 1.2 mi NW 4.6 mph - 0.01 in   Overcast
8:55 AM 24.8 °F 14.6 °F 17.6 °F 74% 29.04 in 4.0 mi NW 10.4 mph - 0.02 in   Overcast
9:15 AM 26.6 °F 15.2 °F 14.0 °F 59% 29.04 in 9.0 mi WNW 13.8 mph 20.7 mph N/A   Mostly Cloudy
9:35 AM 26.6 °F 16.2 °F 15.8 °F 64% 29.06 in 10.0 mi WNW 11.5 mph 20.7 mph 0.01 in   Partly Cloudy
9:55 AM 26.6 °F 18.2 °F 14.0 °F 59% 29.06 in 9.0 mi WNW 8.1 mph 18.4 mph 0.02 in   Clear
10:15 AM 26.6 °F 14.3 °F 15.8 °F 64% 29.07 in 4.0 mi West 16.1 mph 21.9 mph N/A   Clear
10:35 AM 26.6 °F 17.5 °F 15.8 °F 64% 29.10 in 10.0 mi West 9.2 mph 20.7 mph N/A   Mostly Cloudy
10:55 AM 26.6 °F 16.8 °F 15.8 °F 64% 29.12 in 1.5 mi WNW 10.4 mph 20.7 mph N/A   Overcast
11:15 AM 28.4 °F 16.2 °F 17.6 °F 64% 29.13 in 0.2 mi NW 17.3 mph 23.0 mph 0.01 in   Overcast
11:35 AM 28.4 °F 18.0 °F 17.6 °F 64% 29.13 in 10.0 mi NW 12.7 mph 19.6 mph 0.01 in   Partly Cloudy
11:55 AM 28.4 °F 19.1 °F 17.6 °F 64% 29.15 in 10.0 mi West 10.4 mph 19.6 mph 0.01 in   Scattered Clouds
12:15 PM - - - N/A% 29.17 in 10.0 mi West 8.1 mph 19.6 mph N/A   Scattered Clouds
12:35 PM - - - N/A% 29.18 in 10.0 mi WSW 9.2 mph 20.7 mph 0.01 in   Mostly Cloudy
12:55 PM 30.2 °F 23.4 °F 15.8 °F 55% 29.21 in 10.0 mi West 6.9 mph 17.3 mph 0.02 in   Overcast
1:15 PM 30.2 °F 22.6 °F 17.6 °F 60% 29.23 in 10.0 mi SW 8.1 mph - N/A   Overcast
1:35 PM 28.4 °F 21.2 °F 17.6 °F 64% 29.25 in 10.0 mi WSW 6.9 mph - 0.01 in   Overcast
1:55 PM 30.2 °F 22.6 °F 17.6 °F 60% 29.26 in 10.0 mi WSW 8.1 mph - 0.01 in   Overcast
2:15 PM 30.2 °F 25.4 °F 17.6 °F 60% 29.27 in 10.0 mi WSW 4.6 mph - 0.01 in   Overcast
2:35 PM 30.2 °F 20.8 °F 17.6 °F 60% 29.29 in 10.0 mi West 11.5 mph - 0.02 in   Overcast
2:55 PM - - - N/A% 29.29 in 5.0 mi West 4.6 mph - 0.02 in   Mostly Cloudy
3:15 PM - - - N/A% 29.30 in 10.0 mi West 6.9 mph - N/A   Scattered Clouds
3:35 PM 32.0 °F 28.7 °F 19.4 °F 60% 29.32 in 10.0 mi SW 3.5 mph - N/A   Clear
3:55 PM - - - N/A% 29.34 in 10.0 mi WSW 8.1 mph - N/A   Partly Cloudy
4:15 PM - - - N/A% 29.36 in 10.0 mi SW 9.2 mph - N/A   Mostly Cloudy
4:35 PM - - - N/A% 29.38 in 10.0 mi WSW 6.9 mph - 0.01 in   Mostly Cloudy
4:55 PM - - - N/A% 29.40 in 10.0 mi West 11.5 mph 19.6 mph 0.01 in   Mostly Cloudy
5:15 PM 32.0 °F 28.7 °F 19.4 °F 60% 29.44 in 10.0 mi WSW 3.5 mph 17.3 mph 0.01 in   Overcast
5:35 PM 30.2 °F 24.3 °F 19.4 °F 64% 29.45 in 10.0 mi WSW 5.8 mph - 0.01 in   Overcast
5:55 PM 30.2 °F 22.6 °F 17.6 °F 60% 29.47 in 10.0 mi WSW 8.1 mph - 0.01 in   Scattered Clouds
6:15 PM 30.2 °F 25.4 °F 17.6 °F 60% 29.49 in 10.0 mi SSW 4.6 mph - 0.01 in   Scattered Clouds
6:35 PM 30.2 °F 26.7 °F 17.6 °F 60% 29.50 in 10.0 mi SSE 3.5 mph - 0.01 in   Mostly Cloudy
6:55 PM 28.4 °F - 19.4 °F 69% 29.52 in 10.0 mi Calm Calm - 0.01 in   Overcast
7:15 PM 30.2 °F 25.4 °F 19.4 °F 64% 29.53 in 10.0 mi SW 4.6 mph - N/A   Overcast
7:35 PM 28.4 °F - 17.6 °F 64% 29.54 in 10.0 mi Calm Calm - 0.01 in   Overcast
7:55 PM 28.4 °F 19.7 °F 19.4 °F 69% 29.56 in 10.0 mi South 9.2 mph - 0.01 in   Mostly Cloudy
8:15 PM 28.4 °F - 15.8 °F 59% 29.57 in 10.0 mi Calm Calm - N/A   Partly Cloudy
8:35 PM 28.4 °F 22.2 °F 17.6 °F 64% 29.60 in 10.0 mi SSW 5.8 mph - N/A   Clear
8:55 PM 30.2 °F 24.3 °F 17.6 °F 60% 29.64 in 10.0 mi SW 5.8 mph - N/A   Clear
9:15 PM 28.4 °F 21.2 °F 15.8 °F 59% 29.66 in 10.0 mi SW 6.9 mph - N/A   Clear
9:35 PM 28.4 °F 22.2 °F 15.8 °F 59% 29.66 in 10.0 mi SW 5.8 mph - N/A   Clear
9:55 PM 26.6 °F 21.2 °F 15.8 °F 64% 29.66 in 10.0 mi SSW 4.6 mph - N/A   Clear
10:15 PM 26.6 °F 20.0 °F 17.6 °F 69% 29.66 in 10.0 mi South 5.8 mph - N/A   Clear
10:35 PM 26.6 °F 21.2 °F 15.8 °F 64% 29.67 in 10.0 mi SW 4.6 mph - N/A   Clear
10:55 PM 26.6 °F - 15.8 °F 64% 29.68 in 10.0 mi Calm Calm - N/A   Clear
11:15 PM 24.8 °F - 15.8 °F 69% 29.68 in 10.0 mi Calm Calm - N/A   Clear
11:35 PM 26.6 °F - 17.6 °F 69% 29.70 in 10.0 mi Calm Calm - N/A   Clear
11:55 PM 21.2 °F - 12.2 °F 68% 29.71 in 10.0 mi Calm Calm - N/A   Clear